No particular awareness of the weather is required.    There are no Weather-warnings


Meteo18 Weather Cam more information Meteo18 Weather Cam


Thunder radar more information blitzortung!


Rain radar more information rain snow radar


Visit our other weather sites:

Template documentation
and downloads

And another site



Weather Underground History page Text

Daily Summary for May 31, 2017 Units:  Metric    English   Both
« Previous Day
Next Day »
Daily Weekly Monthly Yearly Custom
  High: Low: Average:
Temperature: -17.8 °C -9.8 °C -7.4 °C
Dew Point: -17.8 °C -10.9 °C -9.7 °C
Humidity: Humidity % 61 % 77 %
Wind Speed: 0 km/h 0 km/h 7.7 km/h
Wind Gust: 0 km/h - -
Wind:- - ESE
Pressure: 0 hPa 34554.1 hPa -
Precipitation: 12.7 mm    
Historical Graphs
 
 
Tabular Data for May 31, 2017
Time Temperature Dew Point Pressure Wind Wind Speed Wind Gust Humidity Rainfall Rate (Hourly)
-17.8 °C -17.8 °C 0 hPa Calm     Humidity % 0 mm
00:02 -8.1 °C -10.1 °C 34591.4 hPa North 2.6 km/h 7.7 km/h 80 % 0 mm
00:12 -8.2 °C -10.1 °C 34591.4 hPa NW 2.6 km/h 7.7 km/h 80 % 0 mm
00:17 -8.2 °C -10.1 °C 34591.4 hPa NW 2.6 km/h 7.7 km/h 80 % 0 mm
00:22 -8.2 °C -10.1 °C 34591.4 hPa North 5.1 km/h 7.7 km/h 80 % 0 mm
00:32 -8.3 °C -10.2 °C 34591.4 hPa North 2.6 km/h 10.3 km/h 80 % 0 mm
00:42 -8.3 °C -10.3 °C 34591.4 hPa North 5.1 km/h 10.3 km/h 80 % 0 mm
00:52 -8.4 °C -10.3 °C 34591.4 hPa NNW 2.6 km/h 10.3 km/h 80 % 0 mm
00:57 -8.4 °C -10.3 °C 34591.4 hPa NNE 7.7 km/h 10.3 km/h 80 % 0 mm
01:02 -8.4 °C -10.3 °C 34591.4 hPa North 2.6 km/h 10.3 km/h 80 % 0 mm
01:07 -8.4 °C -10.4 °C 34591.4 hPa Calm   10.3 km/h 80 % 0 mm
01:12 -8.4 °C -10.4 °C 34591.4 hPa NNW 10.3 km/h 10.3 km/h 80 % 0 mm
01:17 -8.5 °C -10.4 °C 34591.4 hPa NNE 10.3 km/h 12.9 km/h 80 % 0 mm
01:22 -8.5 °C -10.4 °C 34591.4 hPa North 15.6 km/h 15.6 km/h 80 % 0 mm
01:32 -8.6 °C -10.5 °C 34591.4 hPa NW 2.6 km/h 15.6 km/h 80 % 0 mm
01:42 -8.7 °C -10.5 °C 34591.4 hPa NNW 2.6 km/h 15.6 km/h 81 % 0 mm
01:47 -8.7 °C -10.5 °C 34591.4 hPa NNE 5.1 km/h 10.3 km/h 81 % 0 mm
01:52 -8.7 °C -10.5 °C 34591.4 hPa Calm   12.9 km/h 81 % 0 mm
01:57 -8.7 °C -10.5 °C 34591.4 hPa North 2.6 km/h 18.2 km/h 81 % 0 mm
02:02 -8.6 °C -10.4 °C 34591.4 hPa Calm   18.2 km/h 81 % 0 mm
02:07 -8.6 °C -10.4 °C 34591.4 hPa NW 2.6 km/h 12.9 km/h 81 % 0 mm
02:12 -8.6 °C -10.4 °C 34591.4 hPa NNW 2.6 km/h 12.9 km/h 81 % 0 mm
02:22 -8.6 °C -10.4 °C 34591.4 hPa North 5.1 km/h 7.7 km/h 81 % 0 mm
02:27 -8.6 °C -10.4 °C 34591.4 hPa North 5.1 km/h 10.3 km/h 81 % 0 mm
02:32 -8.6 °C -10.4 °C 34591.4 hPa NNW 2.6 km/h 10.3 km/h 81 % 0 mm
02:42 -8.6 °C -10.4 °C 34601.5 hPa NNE 10.3 km/h 12.9 km/h 81 % 0 mm
02:47 -8.7 °C -10.4 °C 34601.5 hPa NNE 7.7 km/h 20.8 km/h 82 % 0 mm
02:52 -8.7 °C -10.4 °C 34601.5 hPa Calm   20.8 km/h 82 % 0 mm
02:57 -8.7 °C -10.3 °C 34601.5 hPa ENE 2.6 km/h 15.6 km/h 83 % 0 mm
03:02 -8.7 °C -10.3 °C 34601.5 hPa NE 5.1 km/h 18.2 km/h 83 % 0 mm
03:12 -8.8 °C -10.4 °C 34601.5 hPa North 5.1 km/h 23.3 km/h 83 % 0 mm
03:17 -8.8 °C -10.3 °C 34601.5 hPa North 7.7 km/h 23.3 km/h 84 % 0 mm
03:22 -8.9 °C -10.4 °C 34601.5 hPa NE 2.6 km/h 23.3 km/h 84 % 0 mm
03:27 -8.9 °C -10.3 °C 34601.5 hPa North 5.1 km/h 20.8 km/h 85 % 0 mm
03:32 -9 °C -10.4 °C 34601.5 hPa NE 5.1 km/h 15.6 km/h 85 % 0 mm
03:42 -9.1 °C -10.3 °C 34611.7 hPa North 10.3 km/h 15.6 km/h 86 % 0 mm
03:47 -9.1 °C -10.4 °C 34611.7 hPa North 12.9 km/h 20.8 km/h 86 % 0 mm
03:52 -9.1 °C -10.4 °C 34611.7 hPa NNW 2.6 km/h 20.8 km/h 86 % 0 mm
03:57 -9.1 °C -10.4 °C 34611.7 hPa NNW 7.7 km/h 23.3 km/h 86 % 0 mm
04:02 -9.2 °C -10.4 °C 34611.7 hPa North 10.3 km/h 23.3 km/h 86 % 0 mm
04:12 -9.2 °C -10.4 °C 34611.7 hPa NW 7.7 km/h 23.3 km/h 86 % 0 mm
04:17 -9.2 °C -10.4 °C 34611.7 hPa NNW 2.6 km/h 20.8 km/h 86 % 0 mm
04:22 -9.2 °C -10.4 °C 34611.7 hPa NNE 2.6 km/h 15.6 km/h 86 % 0 mm
04:32 -9.2 °C -10.4 °C 34611.7 hPa NNW 2.6 km/h 12.9 km/h 87 % 0 mm
04:42 -9.2 °C -10.5 °C 34611.7 hPa NNE 5.1 km/h 15.6 km/h 86 % 0 mm
04:47 -9.3 °C -10.5 °C 34611.7 hPa NNE 5.1 km/h 18.2 km/h 87 % 0 mm
04:52 -9.3 °C -10.5 °C 34611.7 hPa NNW 5.1 km/h 18.2 km/h 87 % 0 mm
04:57 -9.3 °C -10.6 °C 34611.7 hPa NE 7.7 km/h 18.2 km/h 87 % 0 mm
05:12 -9.4 °C -10.6 °C 34611.7 hPa North 5.1 km/h 15.6 km/h 87 % 0 mm
05:17 -9.6 °C -10.7 °C 34611.7 hPa NE 10.3 km/h 15.6 km/h 87 % 0 mm
05:22 -9.6 °C -10.7 °C 34611.7 hPa NE 10.3 km/h 18.2 km/h 88 % 0 mm
05:32 -9.6 °C -10.8 °C 34611.7 hPa NNW 7.7 km/h 20.8 km/h 87 % 0 mm
05:42 -9.6 °C -10.8 °C 34611.7 hPa North 7.7 km/h 20.8 km/h 87 % 0 mm
05:47 -9.7 °C -10.8 °C 34611.7 hPa NE 7.7 km/h 20.8 km/h 87 % 0 mm
05:52 -9.7 °C -10.8 °C 34611.7 hPa North 10.3 km/h 20.8 km/h 87 % 0 mm
05:57 -9.7 °C -10.8 °C 34611.7 hPa NNE 5.1 km/h 20.8 km/h 87 % 0 mm
06:02 -9.7 °C -10.8 °C 34611.7 hPa East 7.7 km/h 23.3 km/h 87 % 0 mm
06:07 -9.7 °C -10.8 °C 34611.7 hPa NNE 12.9 km/h 23.3 km/h 87 % 0 mm
06:17 -9.7 °C -10.8 °C 34611.7 hPa NE 7.7 km/h 18.2 km/h 88 % 0 mm
06:22 -9.8 °C -10.9 °C 34611.7 hPa NNW 7.7 km/h 18.2 km/h 88 % 0 mm
06:32 -9.7 °C -10.8 °C 34611.7 hPa North 10.3 km/h 20.8 km/h 88 % 0 mm
06:37 -9.7 °C -10.8 °C 34611.7 hPa NE 12.9 km/h 20.8 km/h 88 % 0 mm
06:42 -9.6 °C -10.8 °C 34611.7 hPa Calm   23.3 km/h 87 % 0 mm
06:47 -9.6 °C -10.7 °C 34611.7 hPa NE 12.9 km/h 23.3 km/h 87 % 0 mm
06:57 -9.5 °C -10.8 °C 34611.7 hPa North 10.3 km/h 23.3 km/h 86 % 0 mm
07:02 -9.4 °C -10.7 °C 34611.7 hPa North 7.7 km/h 23.3 km/h 86 % 0 mm
07:12 -9.4 °C -10.7 °C 34625.2 hPa North 5.1 km/h 28.5 km/h 86 % 0 mm
07:22 -9.5 °C -10.8 °C 34625.2 hPa North 15.6 km/h 23.3 km/h 86 % 0 mm
07:32 -9.4 °C -10.7 °C 34625.2 hPa NNW 7.7 km/h 25.9 km/h 86 % 0 mm
07:37 -9.3 °C -10.6 °C 34625.2 hPa NNE 10.3 km/h 25.9 km/h 86 % 0 mm
07:42 -9.2 °C -10.5 °C 34625.2 hPa NE 25.9 km/h 25.9 km/h 86 % 0 mm
07:52 -9 °C -10.5 °C 34625.2 hPa NNE 12.9 km/h 28.5 km/h 84 % 0 mm
07:57 -8.9 °C -10.4 °C 34625.2 hPa NNE 15.6 km/h 28.5 km/h 84 % 0 mm
08:02 -8.8 °C -10.4 °C 34635.4 hPa ENE 5.1 km/h 23.3 km/h 83 % 0 mm
08:12 -8.6 °C -10.4 °C 34635.4 hPa ENE 5.1 km/h 23.3 km/h 81 % 0 mm
08:17 -8.5 °C -10.4 °C 34635.4 hPa NNE 15.6 km/h 23.3 km/h 80 % 0 mm
08:22 -8.4 °C -10.4 °C 34635.4 hPa North 7.7 km/h 25.9 km/h 80 % 0 mm
08:32 -8.3 °C -10.3 °C 34635.4 hPa North 15.6 km/h 28.5 km/h 79 % 0 mm
08:42 -8.2 °C -10.2 °C 34635.4 hPa NNE 20.8 km/h 28.5 km/h 79 % 0 mm
08:52 -8.2 °C -10.3 °C 34635.4 hPa NE 10.3 km/h 28.5 km/h 78 % 0 mm
09:02 -8.2 °C -10.2 °C 34635.4 hPa ENE 5.1 km/h 28.5 km/h 79 % 0 mm
09:12 -8.1 °C -10.1 °C 34635.4 hPa NNW 5.1 km/h 25.9 km/h 79 % 0 mm
09:17 -7.9 °C -10.1 °C 34635.4 hPa ENE 12.9 km/h 25.9 km/h 78 % 0 mm
09:22 -7.8 °C -10 °C 34635.4 hPa NE 18.2 km/h 25.9 km/h 78 % 0 mm
09:32 -8 °C -10.2 °C 34635.4 hPa NNE 15.6 km/h 31.1 km/h 78 % 0 mm
09:42 -7.7 °C -9.8 °C 34635.4 hPa NNE 15.6 km/h 31.1 km/h 79 % 0 mm
09:47 -7.7 °C -9.9 °C 34635.4 hPa NE 12.9 km/h 31.1 km/h 77 % 0 mm
09:52 -7.6 °C -10.1 °C 34635.4 hPa NE 20.8 km/h 25.9 km/h 75 % 0 mm
10:02 -7.4 °C -9.7 °C 34635.4 hPa NNE 20.8 km/h 33.6 km/h 77 % 0 mm
10:07 -7.3 °C -9.6 °C 34635.4 hPa NE 5.1 km/h 33.6 km/h 77 % 0 mm
10:12 -7.3 °C -9.7 °C 34635.4 hPa NW 15.6 km/h 23.3 km/h 76 % 0 mm
10:17 -7.2 °C -9.7 °C 34635.4 hPa NE 7.7 km/h 23.3 km/h 75 % 0 mm
10:22 -7.2 °C -9.7 °C 34635.4 hPa NE 18.2 km/h 28.5 km/h 75 % 0 mm
10:32 -7 °C -9.8 °C 34635.4 hPa NE 15.6 km/h 28.5 km/h 73 % 0 mm
10:37 -6.9 °C -9.6 °C 34635.4 hPa NNE 20.8 km/h 28.5 km/h 74 % 0 mm
10:42 -6.9 °C -9.7 °C 34625.2 hPa ENE 15.6 km/h 33.6 km/h 73 % 0 mm
10:52 -6.8 °C -9.7 °C 34635.4 hPa NNE 7.7 km/h 33.6 km/h 72 % 0 mm
11:02 -6.7 °C -9.6 °C 34635.4 hPa NNE 31.1 km/h 31.1 km/h 72 % 0 mm
11:12 -6.6 °C -9.4 °C 34635.4 hPa NE 10.3 km/h 38.8 km/h 72 % 0 mm
11:22 -6.6 °C -9.5 °C 34635.4 hPa ENE 12.9 km/h 31.1 km/h 72 % 0 mm
11:32 -6.6 °C -9.4 °C 34625.2 hPa NNE 25.9 km/h 31.1 km/h 72 % 0 mm
11:37 -6.5 °C -9.2 °C 34635.4 hPa NW 5.1 km/h 31.1 km/h 74 % 0 mm
11:42 -6.4 °C -9.3 °C 34635.4 hPa NE 18.2 km/h 31.1 km/h 72 % 0 mm
11:52 -6.3 °C -8.9 °C 34635.4 hPa East 5.1 km/h 31.1 km/h 74 % 0 mm
12:02 -6.1 °C -9.2 °C 34635.4 hPa NE 23.3 km/h 28.5 km/h 71 % 0 mm
12:12 -6.1 °C -9.2 °C 34635.4 hPa NE 10.3 km/h 31.1 km/h 71 % 0 mm
12:17 -6 °C -9.1 °C 34635.4 hPa NNW 10.3 km/h 31.1 km/h 71 % 0 mm
12:22 -6 °C -9.2 °C 34635.4 hPa NE 12.9 km/h 31.1 km/h 70 % 0 mm
12:32 -5.7 °C -9 °C 34635.4 hPa NNE 18.2 km/h 25.9 km/h 69 % 0 mm
12:37 -5.7 °C -8.8 °C 34635.4 hPa NNE 18.2 km/h 25.9 km/h 71 % 0 mm
12:42 -5.7 °C -8.8 °C 34635.4 hPa NNE 10.3 km/h 28.5 km/h 70 % 0 mm
12:47 -5.7 °C -9.1 °C 34635.4 hPa NE 12.9 km/h 28.5 km/h 68 % 0 mm
12:52 -5.9 °C -9.1 °C 34635.4 hPa NNE 15.6 km/h 28.5 km/h 70 % 0 mm
13:02 -5.7 °C -9 °C 34625.2 hPa North 5.1 km/h 31.1 km/h 69 % 0 mm
13:12 -5.8 °C -9.2 °C 34625.2 hPa NNE 18.2 km/h 28.5 km/h 68 % 0 mm
13:22 -5.7 °C -9.2 °C 34611.7 hPa NNE 5.1 km/h 28.5 km/h 68 % 0 mm
13:32 -5.6 °C -9.4 °C 34611.7 hPa NE 7.7 km/h 28.5 km/h 65 % 0 mm
13:37 -5.5 °C -9.1 °C 34611.7 hPa NE 15.6 km/h 28.5 km/h 67 % 0 mm
13:42 -5.4 °C -8.9 °C 34611.7 hPa NW 2.6 km/h 28.5 km/h 67 % 0 mm
13:52 -5.5 °C -9.2 °C 34611.7 hPa NE 10.3 km/h 23.3 km/h 66 % 0 mm
14:02 -5.3 °C -9.2 °C 34611.7 hPa North 20.8 km/h 33.6 km/h 65 % 0 mm
14:12 -5.2 °C -9.2 °C 34611.7 hPa NNE 12.9 km/h 33.6 km/h 64 % 0 mm
14:22 -5.3 °C -9.7 °C 34611.7 hPa NE 2.6 km/h 25.9 km/h 61 % 0 mm
14:32 -5.2 °C -9.1 °C 34611.7 hPa ENE 15.6 km/h 23.3 km/h 65 % 0 mm
14:37 -5.2 °C -9.3 °C 34611.7 hPa ENE 18.2 km/h 23.3 km/h 63 % 0 mm
14:42 -5.3 °C -9.2 °C 34611.7 hPa NE 12.9 km/h 23.3 km/h 65 % 0 mm
14:47 -5.4 °C -9.2 °C 34611.7 hPa NNE 20.8 km/h 23.3 km/h 66 % 0 mm
14:57 -5.3 °C -9.2 °C 34611.7 hPa NE 5.1 km/h 20.8 km/h 65 % 0 mm
15:02 -5.4 °C -9.1 °C 34611.7 hPa NNE 5.1 km/h 20.8 km/h 66 % 0 mm
15:07 -5.4 °C -9.1 °C 34601.5 hPa NNE 2.6 km/h 23.3 km/h 66 % 0 mm
15:12 -5.3 °C -8.9 °C 34601.5 hPa NE 10.3 km/h 23.3 km/h 67 % 0 mm
15:17 -5.2 °C -9.1 °C 34601.5 hPa NNE 18.2 km/h 23.3 km/h 65 % 0 mm
15:22 -5.3 °C -9.2 °C 34601.5 hPa North 12.9 km/h 25.9 km/h 65 % 0 mm
15:27 -5.4 °C -9.1 °C 34601.5 hPa NE 12.9 km/h 25.9 km/h 66 % 0 mm
15:37 -5.4 °C -9 °C 34601.5 hPa NE 10.3 km/h 28.5 km/h 67 % 0 mm
15:42 -5.4 °C -9.3 °C 34601.5 hPa NE 23.3 km/h 28.5 km/h 65 % 0 mm
15:47 -5.4 °C -9.4 °C 34591.4 hPa NE 12.9 km/h 28.5 km/h 64 % 0 mm
15:52 -5.3 °C -9.4 °C 34591.4 hPa ENE 7.7 km/h 28.5 km/h 63 % 0 mm
15:57 -5.3 °C -9.2 °C 34591.4 hPa ENE 7.7 km/h 28.5 km/h 65 % 0 mm
16:02 -5.2 °C -9.1 °C 34591.4 hPa ESE 7.7 km/h 23.3 km/h 65 % 0 mm
16:12 -5.2 °C -8.9 °C 34591.4 hPa North 5.1 km/h 20.8 km/h 66 % 0 mm
16:22 -5.1 °C -8.9 °C 34591.4 hPa North 7.7 km/h 23.3 km/h 65 % 0 mm
16:27 -5 °C -9.1 °C 34591.4 hPa NE 12.9 km/h 23.3 km/h 63 % 0 mm
16:32 -5.1 °C -8.9 °C 34591.4 hPa NNE 10.3 km/h 23.3 km/h 65 % 0 mm
16:37 -5.1 °C -9.1 °C 34591.4 hPa NNE 10.3 km/h 25.9 km/h 64 % 0 mm
16:42 -4.9 °C -9.1 °C 34591.4 hPa Calm   25.9 km/h 63 % 0 mm
16:52 -4.9 °C -9.2 °C 34577.8 hPa NNE 18.2 km/h 25.9 km/h 62 % 0 mm
16:57 -5 °C -9 °C 34577.8 hPa ENE 12.9 km/h 23.3 km/h 64 % 0 mm
17:02 -5.2 °C -9.2 °C 34577.8 hPa North 5.1 km/h 20.8 km/h 64 % 0 mm
17:12 -5.3 °C -9.1 °C 34577.8 hPa NNE 10.3 km/h 20.8 km/h 66 % 0 mm
17:17 -5.4 °C -9.1 °C 34577.8 hPa NE 10.3 km/h 23.3 km/h 66 % 0 mm
17:22 -5.4 °C -9.2 °C 34591.4 hPa NNE 2.6 km/h 23.3 km/h 65 % 0 mm
17:32 -5.4 °C -9.1 °C 34577.8 hPa ENE 5.1 km/h 15.6 km/h 66 % 0 mm
17:37 -5.4 °C -9 °C 34577.8 hPa NE 10.3 km/h 15.6 km/h 67 % 0 mm
17:42 -5.6 °C -9 °C 34577.8 hPa NE 7.7 km/h 15.6 km/h 68 % 0 mm
17:47 -5.6 °C -9.1 °C 34577.8 hPa ENE 12.9 km/h 15.6 km/h 68 % 0 mm
17:52 -5.7 °C -9 °C 34577.8 hPa NNE 10.3 km/h 18.2 km/h 69 % 0 mm
17:57 -5.8 °C -9.1 °C 34577.8 hPa NE 7.7 km/h 20.8 km/h 69 % 0 mm
18:02 -5.8 °C -9.2 °C 34567.7 hPa NE 5.1 km/h 20.8 km/h 68 % 0 mm
18:07 -5.9 °C -9.2 °C 34567.7 hPa NNE 12.9 km/h 20.8 km/h 69 % 0 mm
18:17 -6.2 °C -8.9 °C 34567.7 hPa NNE 15.6 km/h 20.8 km/h 73 % 0 mm
18:27 -6.4 °C -8.9 °C 34567.7 hPa NE 10.3 km/h 23.3 km/h 75 % 0 mm
18:32 -6.4 °C -8.8 °C 34567.7 hPa NE 10.3 km/h 23.3 km/h 77 % 0 mm
18:42 -6.6 °C -8.7 °C 34567.7 hPa North 5.1 km/h 20.8 km/h 79 % 7.62 mm
18:52 -6.6 °C -8.5 °C 34567.7 hPa Calm   15.6 km/h 81 % 7.62 mm
19:02 -6.7 °C -8.5 °C 34567.7 hPa NNE 5.1 km/h 12.9 km/h 82 % 12.7 mm
19:12 -6.7 °C -8.5 °C 34554.1 hPa North 2.6 km/h 10.3 km/h 82 % 12.7 mm
19:17 -6.8 °C -8.6 °C 34567.7 hPa NE 7.7 km/h 10.3 km/h 82 % 12.7 mm
19:22 -6.8 °C -8.4 °C 34567.7 hPa NNE 5.1 km/h 7.7 km/h 83 % 12.7 mm
19:32 -6.8 °C -8.4 °C 34567.7 hPa NNE 2.6 km/h 10.3 km/h 84 % 12.7 mm
19:37 -6.8 °C -8.5 °C 34567.7 hPa NNE 7.7 km/h 10.3 km/h 83 % 7.62 mm
19:42 -6.8 °C -8.4 °C 34567.7 hPa NE 2.6 km/h 10.3 km/h 84 % 7.62 mm
19:52 -6.9 °C -8.4 °C 34567.7 hPa Calm   10.3 km/h 84 % 0 mm
19:57 -6.9 °C -8.6 °C 34567.7 hPa NNE 2.6 km/h 7.7 km/h 83 % 0 mm
20:02 -6.8 °C -8.5 °C 34567.7 hPa North 2.6 km/h 7.7 km/h 83 % 0 mm
20:12 -6.8 °C -8.5 °C 34567.7 hPa Calm   7.7 km/h 83 % 0 mm
20:17 -6.8 °C -8.4 °C 34567.7 hPa North 2.6 km/h 7.7 km/h 83 % 0 mm
20:22 -6.8 °C -8.4 °C 34567.7 hPa Calm   7.7 km/h 83 % 0 mm
20:32 -6.8 °C -8.4 °C 34567.7 hPa North 5.1 km/h 5.1 km/h 83 % 0 mm
20:42 -6.8 °C -8.6 °C 34577.8 hPa Calm   5.1 km/h 82 % 0 mm
20:47 -6.8 °C -8.6 °C 34567.7 hPa Calm   7.7 km/h 82 % 0 mm
20:52 -6.8 °C -8.6 °C 34577.8 hPa Calm   7.7 km/h 82 % 0 mm
20:57 -6.8 °C -8.7 °C 34577.8 hPa Calm   2.6 km/h 81 % 0 mm
21:02 -6.7 °C -8.6 °C 34577.8 hPa Calm   2.6 km/h 81 % 0 mm
21:12 -6.6 °C -8.5 °C 34577.8 hPa Calm   2.6 km/h 81 % 0 mm
21:17 -6.7 °C -8.7 °C 34577.8 hPa Calm   2.6 km/h 80 % 0 mm
21:22 -6.8 °C -8.8 °C 34577.8 hPa Calm   2.6 km/h 80 % 0 mm
21:27 -6.9 °C -8.8 °C 34577.8 hPa Calm     81 % 0 mm
21:32 -7 °C -8.8 °C 34591.4 hPa Calm     81 % 0 mm
21:42 -7.1 °C -8.9 °C 34591.4 hPa Calm     81 % 0 mm
21:47 -7.2 °C -8.9 °C 34591.4 hPa Calm     82 % 0 mm
21:57 -7.4 °C -8.9 °C 34591.4 hPa Calm     84 % 0 mm
22:02 -7.6 °C -9 °C 34591.4 hPa Calm     85 % 0 mm
22:12 -7.7 °C -9.1 °C 34601.5 hPa Calm     85 % 0 mm
22:22 -7.7 °C -9.2 °C 34591.4 hPa Calm   2.6 km/h 84 % 0 mm
22:32 -7.8 °C -9.3 °C 34591.4 hPa NE 5.1 km/h 10.3 km/h 85 % 0 mm
22:42 -7.9 °C -9.3 °C 34601.5 hPa NE 2.6 km/h 10.3 km/h 85 % 0 mm
22:52 -7.7 °C -9.3 °C 34601.5 hPa Calm   7.7 km/h 83 % 0 mm
22:57 -7.8 °C -9.3 °C 34601.5 hPa Calm   7.7 km/h 84 % 0 mm
23:02 -7.9 °C -9.4 °C 34601.5 hPa Calm   5.1 km/h 84 % 0 mm
23:12 -7.9 °C -9.4 °C 34601.5 hPa Calm   5.1 km/h 84 % 0 mm
23:17 -8 °C -9.5 °C 34601.5 hPa Calm   2.6 km/h 84 % 0 mm
23:22 -7.9 °C -9.4 °C 34601.5 hPa NNE 2.6 km/h 2.6 km/h 84 % 0 mm
23:27 -7.9 °C -9.4 °C 34601.5 hPa North 2.6 km/h 5.1 km/h 84 % 0 mm
23:32 -8 °C -9.5 °C 34601.5 hPa North 2.6 km/h 5.1 km/h 84 % 0 mm
23:37 -8.1 °C -9.5 °C 34601.5 hPa North 2.6 km/h 5.1 km/h 85 % 0 mm
23:42 -8.2 °C -9.6 °C 34601.5 hPa Calm   5.1 km/h 85 % 0 mm
23:47 -8.2 °C -9.6 °C 34601.5 hPa Calm   7.7 km/h 85 % 0 mm
23:52 -8.2 °C -9.6 °C 34601.5 hPa Calm   7.7 km/h 85 % 0 mm
Meteo18
Compliments of Weather Underground - 4 mb

Script developed by  Jim McMurry - jmcmurry@mwt.net Adapted for the template by  Wim van der Kuil - Leuven-Template.eu

You find our weather info also at:

European Weather Network

Weather Underground

Equipment we use:

Weather-station
Davis Vue

Weather-program
Meteobridge

Weather-server
Raspberry PI 2 B+

Provider
1 and 1

Davis Vue

Meteobridge

Raspberry PI 2 B+

1 and 1